CST,Max TemperatureF,Mean TemperatureF,Min TemperatureF,Max Dew PointF,MeanDew PointF,Min DewpointF,Max Humidity, Mean Humidity, Min Humidity, Max Sea Level PressureIn, Mean Sea Level PressureIn, Min Sea Level PressureIn, Max VisibilityMiles, Mean VisibilityMiles, Min VisibilityMiles, Max Wind SpeedMPH, Mean Wind SpeedMPH, Max Gust SpeedMPH,PrecipitationIn, CloudCover, Events, WindDirDegrees
2011-11-1,71,50,28,46,38,25,93,58,38,30.11,30.04,29.97,10,10,5,12,6,18,0.00,0,,156
2011-11-2,64,58,48,46,39,37,87,52,42,30.04,30.01,29.95,10,10,5,21,5,25,0.00,6,,213
2011-11-3,44,40,37,37,34,30,81,78,75,30.23,30.20,30.17,10,10,10,12,9,16,0.00,0,,21
2011-11-4,53,42,32,41,34,27,87,76,51,30.36,30.28,30.24,10,10,7,10,6,,0.00,0,,65
2011-11-5,57,44,32,45,36,28,87,73,58,30.24,30.13,30.00,10,10,7,13,9,21,0.00,0,,132
2011-11-6,60,52,44,52,45,37,82,73,67,30.02,29.97,29.95,10,10,10,14,8,23,0.00,5,,174
2011-11-7,60,53,46,48,39,34,87,62,36,30.23,30.19,30.11,10,10,8,7,3,,0.00,6,,55
2011-11-8,46,44,42,45,41,39,93,86,81,30.15,30.01,29.94,10,8,2,23,15,32,0.66,8,,44
2011-11-9,44,38,33,43,36,28,93,85,75,30.01,29.79,29.58,10,7,2,26,17,36,0.68,6,,329
2011-11-10,42,36,30,30,27,25,80,72,61,30.08,30.04,30.00,10,10,10,20,13,26,0.00,6,,273
2011-11-11,48,38,28,32,27,25,86,71,50,30.06,29.91,29.75,10,10,10,15,5,21,0.00,1,,184
2011-11-12,59,44,30,45,36,27,93,67,45,29.79,29.69,29.52,10,10,10,13,4,23,0.00,0,,180
2011-11-13,68,59,50,54,44,30,88,64,35,29.54,29.41,29.30,10,10,10,38,12,45,0.00,0,,213
2011-11-14,57,44,32,41,36,28,87,73,51,29.75,29.64,29.57,10,10,8,10,5,,0.00,2,,230
2011-11-15,64,46,28,39,33,25,93,63,34,29.85,29.75,29.69,10,10,5,18,5,23,0.00,0,,241
2011-11-16,42,34,26,25,17,10,74,51,27,30.19,30.10,29.95,10,10,10,22,11,31,0.00,0,,293
2011-11-17,39,29,19,16,15,12,74,57,36,30.27,30.21,30.17,10,10,10,22,11,29,0.00,0,,259
2011-11-18,55,42,30,23,19,14,55,40,25,30.15,29.97,29.83,10,10,10,14,8,26,0.00,0,,183
2011-11-19,55,48,41,48,34,23,77,56,46,29.87,29.78,29.68,10,10,10,14,9,23,0.00,6,,180
2011-11-20,42,40,37,34,31,28,81,70,61,30.32,30.22,29.98,10,10,10,17,11,22,0.00,7,,9
2011-11-21,51,40,28,37,32,25,93,75,58,30.31,30.26,30.18,10,9,5,16,9,20,0.00,1,,61
2011-11-22,42,40,39,39,36,34,93,86,81,30.17,30.02,29.90,7,4,2,16,10,21,0.11,8,,34
2011-11-23,51,40,28,37,33,25,93,78,58,30.25,30.19,30.09,10,5,0,9,5,,0.02,1,,254
2011-11-24,53,46,39,45,40,37,93,83,71,30.22,30.16,30.04,10,6,2,13,8,18,0.00,6,,206
2011-11-25,57,49,41,45,41,36,87,73,59,30.01,29.92,29.85,10,10,8,12,6,21,0.00,1,,201
2011-11-26,53,47,41,52,44,37,94,83,67,29.87,29.83,29.78,10,8,2,17,8,23,0.31,8,,235
2011-11-27,42,38,33,39,30,25,87,76,70,30.17,30.03,29.86,10,10,7,20,14,25,0.01,8,,337
2011-11-28,35,32,28,28,25,23,86,74,69,30.19,30.13,30.03,10,10,10,14,8,,0.00,7,,22
2011-11-29,39,34,28,28,24,19,86,69,52,30.09,30.02,29.96,10,10,8,24,15,36,0.00,1,,359
2011-11-30,42,30,17,23,18,10,86,61,39,30.14,30.09,30.05,10,10,10,15,7,20,0.00,0,,270